Ely, MN

11:39 AM CST on January 23, 2017 (GMT -0600)
Ely Municipal

Weather History for KELO - May, 2014

Change the Weather History Date:

Wednesday, May 28, 2014

  Actual Average Record
Temperature  
Mean Temperature 60 °F -  
Max Temperature 82 °F 63 °F 87 °F (2006)
Min Temperature 39 °F 38 °F 28 °F (2004)
Degree Days  
Heating Degree Days 4    
Growing Degree Days 10 (Base 50)    
Moisture  
Dew Point 39 °F    
Average Humidity 50    
Maximum Humidity 93    
Minimum Humidity 23    
Precipitation  
Precipitation 0.00 in - - ()
Sea Level Pressure  
Sea Level Pressure 30.11 in    
Wind  
Wind Speed 2 mph (SSE)    
Max Wind Speed 14 mph    
Max Gust Speed 17 mph    
Visibility 10 miles    
Events      
Averages and records for this station are not official NWS values.
T = Trace of Precipitation, MM = Missing Value Source: NWS Daily Summary

Daily Weather History Graph

Daily Weather History Graph

Search for Another Location

Airport or City:

Trip Planner

Search our weather history database for the weather conditions in past years. The results will help you decide how hot, cold, wet, or windy it might be!

Date:

Astronomy

May. 28, 2014 Rise Set
Actual Time 5:15 AM CDT 8:54 PM CDT
Civil Twilight 4:36 AM CDT 9:33 PM CDT
Nautical Twilight 3:44 AM CDT 10:26 PM CDT
Astronomical Twilight 2:31 AM CDT 11:39 PM CDT
Moon 5:27 AM CDT (5/28) 8:48 PM CDT (5/28)
Length of Visible Light 16h 56m
Length of Day
15h 38m
Waning Crescent, 0% of the Moon is Illuminated
May 28
Waning Crescent
May 28
New
Jun 5
First Quarter
Jun 12
Full
Jun 19
Last Quarter

Hourly Weather History & Observations

Time (CDT) Temp. Windchill Dew Point Humidity Pressure Visibility Wind Dir Wind Speed Gust Speed Precip Events Conditions
12:13 AM 50.0 °F - 39.2 °F 66% 30.07 in 10.0 mi Calm Calm - N/A   Clear
12:32 AM 48.2 °F - 39.2 °F 71% 30.07 in 10.0 mi Calm Calm - N/A   Clear
12:53 AM 46.4 °F - 39.2 °F 76% 30.07 in 10.0 mi Calm Calm - N/A   Clear
1:13 AM 46.4 °F - 42.8 °F 87% 30.07 in 10.0 mi Calm Calm - N/A   Clear
1:32 AM 44.6 °F - 42.8 °F 93% 30.08 in 10.0 mi Calm Calm - N/A   Clear
1:53 AM 44.6 °F - 39.2 °F 81% 30.08 in 10.0 mi Calm Calm - N/A   Clear
2:13 AM 44.6 °F - 39.2 °F 81% 30.07 in 10.0 mi Calm Calm - N/A   Clear
2:32 AM 42.8 °F - 39.2 °F 87% 30.07 in 10.0 mi Calm Calm - N/A   Clear
2:53 AM 42.8 °F - 41.0 °F 93% 30.08 in 10.0 mi Calm Calm - N/A   Clear
3:13 AM 42.8 °F - 39.2 °F 87% 30.08 in 10.0 mi Calm Calm - N/A   Clear
3:32 AM 41.0 °F - 39.2 °F 93% 30.08 in 10.0 mi Calm Calm - N/A   Clear
3:53 AM 42.8 °F - 39.2 °F 87% 30.09 in 10.0 mi Calm Calm - N/A   Clear
4:13 AM 41.0 °F - 39.2 °F 93% 30.10 in 10.0 mi Calm Calm - N/A   Clear
4:32 AM 41.0 °F - 37.4 °F 87% 30.10 in 10.0 mi Calm Calm - N/A   Clear
4:53 AM 41.0 °F - 35.6 °F 81% 30.10 in 10.0 mi Calm Calm - N/A   Clear
5:13 AM 39.2 °F - 37.4 °F 93% 30.11 in 10.0 mi Calm Calm - N/A   Clear
5:32 AM 41.0 °F - 37.4 °F 87% 30.12 in 10.0 mi Calm Calm - N/A   Clear
5:53 AM 39.2 °F - 35.6 °F 87% 30.12 in 10.0 mi Calm Calm - N/A   Clear
6:13 AM 39.2 °F 37.0 °F 37.4 °F 93% 30.12 in 10.0 mi ESE 3.5 mph - N/A   Clear
6:32 AM 44.6 °F - 39.2 °F 81% 30.13 in 10.0 mi Calm Calm - N/A   Clear
6:53 AM 48.2 °F - 39.2 °F 71% 30.13 in 10.0 mi Calm Calm - N/A   Clear
7:13 AM 51.8 °F - 39.2 °F 62% 30.13 in 10.0 mi Calm Calm - N/A   Clear
7:32 AM 53.6 °F - 39.2 °F 58% 30.14 in 10.0 mi Calm Calm - N/A   Clear
7:42 AM 55.4 °F - 39.2 °F 54% 30.13 in 10.0 mi ESE 4.6 mph - N/A   Clear
8:01 AM 57.2 °F - 39.2 °F 51% 30.14 in 10.0 mi SSE 3.5 mph - N/A   Clear
8:41 AM 60.8 °F - 39.2 °F 45% 30.14 in 10.0 mi ESE 4.6 mph - N/A   Clear
9:01 AM 62.6 °F - 39.2 °F 42% 30.14 in 10.0 mi SE 4.6 mph - N/A   Clear
9:21 AM 64.4 °F - 41.0 °F 42% 30.14 in 10.0 mi SSE 3.5 mph - N/A   Clear
9:41 AM 64.4 °F - 39.2 °F 40% 30.13 in 10.0 mi NE 1.2 mph - N/A   Clear
10:01 AM 66.2 °F - 39.2 °F 37% 30.13 in 10.0 mi ESE 3.5 mph - N/A   Clear
10:21 AM 68.0 °F - 39.2 °F 35% 30.14 in 10.0 mi SE 5.8 mph - N/A   Clear
10:41 AM 69.8 °F - 37.4 °F 31% 30.13 in 10.0 mi Calm Calm - N/A   Clear
11:01 AM 71.6 °F - 37.4 °F 29% 30.12 in 10.0 mi SE 6.9 mph - N/A   Clear
11:52 AM 73.4 °F - 35.6 °F 25% 30.12 in 10.0 mi East 5.8 mph - N/A   Clear
12:13 PM 75.2 °F - 37.4 °F 25% 30.12 in 10.0 mi Calm Calm - N/A   Clear
12:33 PM 75.2 °F - 37.4 °F 25% 30.12 in 10.0 mi Calm Calm - N/A   Clear
12:53 PM 75.2 °F - 37.4 °F 25% 30.11 in 10.0 mi Calm Calm - N/A   Clear
1:13 PM 75.2 °F - 37.4 °F 25% 30.11 in 10.0 mi Calm Calm - N/A   Clear
1:53 PM 78.8 °F - 39.2 °F 24% 30.10 in 10.0 mi WSW 4.6 mph - N/A   Clear
2:13 PM 78.8 °F - 39.2 °F 24% 30.10 in 10.0 mi South 3.5 mph - N/A   Clear
2:33 PM 78.8 °F - 37.4 °F 23% 30.09 in 10.0 mi Calm Calm - N/A   Clear
2:53 PM 80.6 °F - 39.2 °F 23% 30.09 in 10.0 mi SSW 5.8 mph - N/A   Clear
3:13 PM 80.6 °F - 39.2 °F 23% 30.09 in 10.0 mi ESE 4.6 mph - N/A   Clear
3:33 PM 82.4 °F - 41.0 °F 23% 30.09 in 10.0 mi SW 4.6 mph - N/A   Clear
3:53 PM 80.6 °F - 41.0 °F 24% 30.09 in 10.0 mi SE 8.1 mph - N/A   Clear
4:13 PM 80.6 °F - 41.0 °F 24% 30.09 in 10.0 mi SE 5.8 mph - N/A   Clear
4:33 PM 80.6 °F - 39.2 °F 23% 30.09 in 10.0 mi ESE 3.5 mph - N/A   Clear
4:53 PM 80.6 °F - 42.8 °F 26% 30.09 in 10.0 mi SSE 12.7 mph 17.3 mph N/A   Clear
5:13 PM 78.8 °F - 41.0 °F 26% 30.09 in 10.0 mi SE 12.7 mph - N/A   Clear
5:33 PM 78.8 °F - 41.0 °F 26% 30.09 in 10.0 mi SSE 13.8 mph 17.3 mph N/A   Clear
5:52 PM 78.8 °F - 41.0 °F 26% 30.09 in 10.0 mi SE 10.4 mph - N/A   Clear
6:13 PM 75.2 °F - 39.2 °F 27% 30.09 in 10.0 mi SSE 9.2 mph - N/A   Clear
6:33 PM 75.2 °F - 39.2 °F 27% 30.09 in 10.0 mi SSE 9.2 mph - N/A   Clear
6:53 PM 75.2 °F - 39.2 °F 27% 30.10 in 10.0 mi SSE 11.5 mph - N/A   Clear
7:12 PM 73.4 °F - 39.2 °F 29% 30.10 in 10.0 mi SSE 9.2 mph 16.1 mph N/A   Clear
7:33 PM 73.4 °F - 39.2 °F 29% 30.10 in 10.0 mi SSE 6.9 mph - N/A   Clear
7:53 PM 71.6 °F - 39.2 °F 31% 30.10 in 10.0 mi SSE 8.1 mph - N/A   Clear
8:13 PM 69.8 °F - 37.4 °F 31% 30.11 in 10.0 mi SSE 6.9 mph - N/A   Clear
8:33 PM 68.0 °F - 37.4 °F 33% 30.11 in 10.0 mi South 6.9 mph - N/A   Clear
8:53 PM 66.2 °F - 37.4 °F 35% 30.12 in 10.0 mi South 4.6 mph - N/A   Clear
9:13 PM 64.4 °F - 39.2 °F 40% 30.11 in 10.0 mi SSE 6.9 mph - N/A   Clear
9:33 PM 62.6 °F - 39.2 °F 42% 30.12 in 10.0 mi SSE 4.6 mph - N/A   Clear
9:53 PM 62.6 °F - 37.4 °F 39% 30.12 in 10.0 mi South 5.8 mph - N/A   Clear
10:13 PM 60.8 °F - 37.4 °F 42% 30.13 in 10.0 mi South 4.6 mph - N/A   Clear
10:33 PM 60.8 °F - 37.4 °F 42% 30.13 in 10.0 mi Calm Calm - N/A   Clear
10:53 PM 59.0 °F - 39.2 °F 48% 30.13 in 10.0 mi South 3.5 mph - N/A   Clear
11:13 PM 57.2 °F - 39.2 °F 51% 30.13 in 10.0 mi SSE 3.5 mph - N/A   Clear
11:33 PM 57.2 °F - 39.2 °F 51% 30.13 in 10.0 mi SSE 3.5 mph - N/A   Clear
11:53 PM 55.4 °F - 39.2 °F 54% 30.13 in 10.0 mi South 4.6 mph - N/A   Clear